Home > Weather > Firenze > Past weeks

Flag for Italy Past Weather in Firenze, Italy — Yesterday and Last 2 Weeks

Now
73 °F

Clear.


Feels Like: 76 °F
Forecast: 66 / 89 °F
Wind: No wind

Location: Florence / Peretola

Current Time: Jul 2, 2016 at 12:36:52 AM

Latest Report: Jul 1, 2016 at 11:50 PM


Visibility: 10 mi

Pressure: 30.04 "Hg

Humidity: 69%

Dew Point: 63 °F

Location of FirenzeLocation

Past Weather in Firenze — Graph

°F

Firenze Temperature Yesterday

Maximum temperature yesterday: 90 °F (at 2:50 PM)
Minimum temperature yesterday: 64 °F (at 4:20 AM)
Average temperature yesterday: 78 °F

High & Low Weather Summary for the Past Weeks

 TemperatureHumidityPressure
High95 °F (Jun 24, 2:20 PM)100% (Jun 17, 6:20 AM)30.18 "Hg (Jun 17, 6:20 AM)
Low55 °F (Jun 18, 3:50 AM)25% (Jun 28, 2:20 PM)29.71 "Hg (Jun 16, 11:20 PM)
Average75 °F61%30.01 "Hg
* Reported Jun 16 11:20 PM — Jul 1 11:20 PM, Firenze, Weather by CustomWeather, © 2016

Note: Actual official high and low records may vary slightly from our data, if they occured in-between our weather recording intervals... More about our weather records

Advertising

Firenze Weather History for the Previous 24 Hours

Scroll right to see more
 ConditionsComfort  
Time TempWeatherWind HumidityBarometerVisibility
11:20 PM
Fri, Jul 1
73 °FClear.1 mph65%30.04 "Hg10 mi
10:50 PM77 °FClear.2 mph57%30.04 "Hg10 mi
10:20 PM79 °FPassing clouds.7 mph54%30.04 "HgN/A
9:50 PM79 °FSunny.10 mph54%30.04 "Hg10 mi
9:20 PM81 °FPassing clouds.8 mph51%30.01 "HgN/A
8:50 PM82 °FPassing clouds.8 mph51%30.01 "HgN/A
8:20 PM84 °FPassing clouds.8 mph48%30.01 "HgN/A
7:50 PM84 °FPassing clouds.8 mph48%30.01 "HgN/A
7:20 PM86 °FPassing clouds.9 mph49%29.98 "HgN/A
6:50 PM88 °FSunny.12 mph43%29.98 "Hg10 mi
6:20 PM88 °FPassing clouds.9 mph40%29.98 "HgN/A
5:50 PM90 °FPassing clouds.9 mph38%29.98 "HgN/A
5:20 PM90 °FPassing clouds.7 mph36%29.98 "HgN/A
4:50 PM90 °FPassing clouds.7 mph36%30.01 "HgN/A
4:20 PM90 °FPassing clouds.8 mph33%30.01 "HgN/A
3:50 PM90 °FPassing clouds.8 mph31%30.01 "HgN/A
3:20 PM90 °FSunny.8 mph29%30.01 "Hg10 mi
2:50 PM90 °FPassing clouds.7 mph31%30.01 "HgN/A
2:20 PM88 °FPassing clouds.8 mph33%30.04 "HgN/A
1:50 PM88 °FPassing clouds.6 mph40%30.04 "HgN/A
1:20 PM88 °FSunny.2 mph35%30.04 "Hg10 mi
12:50 PM86 °FSunny.3 mph38%30.04 "Hg10 mi
12:20 PM84 °FSunny.3 mph37%30.04 "Hg10 mi
11:50 AM84 °FSunny.3 mph40%30.04 "Hg10 mi
11:20 AM82 °FPassing clouds.5 mph45%30.07 "HgN/A
10:50 AM82 °FSunny.2 mph48%30.07 "Hg10 mi
10:20 AM81 °FSunny.2 mph51%30.07 "Hg10 mi
9:50 AM79 °FSunny.2 mph58%30.07 "Hg10 mi
9:20 AM75 °FSunny.1 mph65%30.07 "Hg10 mi
8:50 AM73 °FSunny.2 mph69%30.07 "Hg10 mi
8:20 AM72 °FSunny.2 mph69%30.07 "Hg10 mi
7:50 AM72 °FSunny.No wind69%30.07 "Hg10 mi
7:20 AM70 °FSunny.1 mph78%30.07 "Hg10 mi
6:50 AM66 °FSunny.2 mph88%30.07 "Hg10 mi
6:20 AM66 °FClear.2 mph83%30.04 "Hg10 mi
5:50 AM64 °FClear.2 mph88%30.04 "Hg10 mi
5:20 AM64 °FClear.2 mph88%30.04 "Hg10 mi
4:50 AM64 °FClear.1 mph83%30.04 "Hg10 mi
4:20 AM64 °FClear.No wind88%30.04 "Hg10 mi
3:50 AM66 °FClear.No wind83%30.04 "Hg10 mi
2:50 AM66 °FClear.2 mph83%30.04 "Hg10 mi
2:20 AM66 °FClear.1 mph83%30.04 "Hg10 mi
1:50 AM68 °FClear.3 mph78%30.04 "Hg10 mi
1:20 AM68 °FClear.3 mph78%30.04 "Hg10 mi
12:50 AM70 °FClear.2 mph73%30.04 "Hg10 mi
12:20 AM70 °FClear.3 mph73%30.04 "Hg10 mi
Weather by CustomWeather, © 2016

See weather overviewHow to use our weather pages